Location: �terpigny
(49.8910°N, 2.9249°E)
Time: 03:50:55
(UTC+00:00)

Cosmos 332 Rocket - Pass Details

Date: 06 June 2022
Orbit: 681 x 703 km, 74.0° (Epoch: 05 July)

Event Time Altitude Azimuth Distance (km) Brightness Sun altitude
Exits shadow 22:33:38 26° 169° (S) 1,319 4.6 -15.6°
Maximum altitude 22:36:00 50° 107° (ESE) 869 4.1 -15.7°
Drops below altitude 10° 22:40:38 10° 33° (NNE) 2,137 6.9 -15.9°
Sets 22:43:00 0° 28° (NNE) 3,059 7.9 -16.0°
